Location: Poughquag
(41.6090°N, 73.6820°W)
Time: 00:55:31
(UTC-04:00)

AAUSAT CUBESAT 2 - Visible Passes

Search period start: 13 July 2024 00:00
Search period end: 23 July 2024 00:00
Orbit: 504 x 515 km, 97.6° (Epoch: 12 July)

Date Brightness Start Highest point End Pass type
(mag) Time Alt. Az. Time Alt. Az. Time Alt. Az.
13 Jul ? 04:47:22 10° NE 04:50:20 22° E 04:53:17 10° SSE visible
14 Jul ? 04:31:26 10° ENE 04:33:30 14° E 04:35:33 10° SE visible
18 Jul ? 04:56:58 10° NE 05:00:15 29° E 05:03:30 10° SSE visible
19 Jul ? 04:40:34 10° NE 04:43:12 18° E 04:45:50 10° SE visible
20 Jul ? 04:24:48 10° ENE 04:26:05 11° E 04:27:21 10° ESE visible
